Powrót do katalogu

ARIANE 5 R/B

AktywnyHEO
NORAD 38742·ROCKET BODY·🇫🇷 France

Wystrzelony Aug 2, 2012 z Guiana Space Centre

Loading…

Następne Przeloty (najbliższe 24 godziny)

TLE

ŚwieżeSource: Space-Track

Epoka: Sep 12, 2026, 18:08 UTC

1 38742U 12043C   26255.75558362  .00003884  00000-0  10558-2 0  9999
2 38742   5.8911 309.7968 7027227  59.2003 351.2789  2.60523934125195

Śledź ARIANE 5 R/B w czasie rzeczywistym z AllMySat

Download on the App Store